WetterOnline ( https://www.wetteronline.de )

Wetter aktuell Reschenpass

Aktuelles Wetter: Reschenpass (1461m)

6-stündlich | Neueste Meldungen
Ortszeit Temperatur Wetter
Sa, 06.06. 2:00 10.2° C bewölkt
Fr, 05.06. 20:00 13.6° C wolkig
Fr, 05.06. 14:00 13.0° C bewölkt
Fr, 05.06. 8:00 6.4° C wolkig
Fr, 05.06. 2:00 6.0° C leichter Regen
Do, 04.06. 20:00 8.6° C leichter Regen
Do, 04.06. 14:00 9.6° C leichter Regen
Do, 04.06. 8:00 8.8° C bedeckt
Ortszeit Temperatur Wetter
Sa, 06.06. 6:00 9.4° C wolkig
Sa, 06.06. 5:55 9° C leicht bewölkt
Sa, 06.06. 5:00 9.8° C bewölkt
Sa, 06.06. 4:55 10° C leicht bewölkt
Sa, 06.06. 4:00 10.0° C bewölkt
Sa, 06.06. 3:55 10° C leicht bewölkt
Sa, 06.06. 3:00 10.0° C bewölkt
Sa, 06.06. 2:55 10° C leicht bewölkt
Sa, 06.06. 2:00 10.2° C bewölkt
Ortszeit Relative Feuchte Sichtweite
Sa, 06.06. 2:00 86% 10 km
Fr, 05.06. 20:00 45% 15 km
Fr, 05.06. 14:00 49% 15 km
Fr, 05.06. 8:00 88% 20 km
Fr, 05.06. 2:00 94% 3.0 km
Do, 04.06. 20:00 100% 6 km
Do, 04.06. 14:00 98% 7 km
Do, 04.06. 8:00 97% 5.0 km
Ortszeit Relative Feuchte Sichtweite
Sa, 06.06. 6:00 95% 8 km
Sa, 06.06. 5:55 100% 8 km
Sa, 06.06. 5:00 93% 10 km
Sa, 06.06. 4:55 93% >10 km
Sa, 06.06. 4:00 91% 10 km
Sa, 06.06. 3:55 93% >10 km
Sa, 06.06. 3:00 88% 20 km
Sa, 06.06. 2:55 87% >10 km
Sa, 06.06. 2:00 86% 10 km
Ortszeit Niederschlagsmenge Niederschlagsart
Sa, 06.06. 2:00 0.0 l/m2 in 6 Std. -
Fr, 05.06. 20:00 0.0 l/m2 in 12 Std. -
Fr, 05.06. 14:00 0.0 l/m2 in 6 Std. -
Fr, 05.06. 8:00 7 l/m2 in 12 Std. Regen
Fr, 05.06. 2:00 7 l/m2 in 6 Std. Regen
Do, 04.06. 20:00 1 l/m2 in 12 Std. Regen
Do, 04.06. 14:00 0.4 l/m2 in 6 Std. Regen
Do, 04.06. 8:00 0.1 l/m2 in 12 Std. Regen
Ortszeit Niederschlagsmenge Niederschlagsart
Sa, 06.06. 6:00 keine Meldung -
Sa, 06.06. 5:55 keine Meldung -
Sa, 06.06. 5:00 keine Meldung -
Sa, 06.06. 4:55 keine Meldung -
Sa, 06.06. 4:00 keine Meldung -
Sa, 06.06. 3:55 keine Meldung -
Sa, 06.06. 3:00 keine Meldung -
Sa, 06.06. 2:55 keine Meldung -
Sa, 06.06. 2:00 keine Meldung -
Ortszeit Stärke Spitze Richtung
km/h Bft. km/h Grad Sektor
Sa, 06.06. 2:00 7 2 - 190° S
Fr, 05.06. 20:00 7 2 - 180° S
Fr, 05.06. 14:00 13 3 - 30° NO
Fr, 05.06. 8:00 7 2 - 40° NO
Fr, 05.06. 2:00 9 2 - 20° N
Do, 04.06. 20:00 13 3 - 190° S
Do, 04.06. 14:00 15 3 - 170° S
Do, 04.06. 8:00 15 3 - 150° SO
Ortszeit Stärke Spitze Richtung
km/h Bft. km/h Grad Sektor
Sa, 06.06. 6:00 17 3 - 170° S
Sa, 06.06. 5:55 17 3 - 170° S
Sa, 06.06. 5:00 11 2 - 180° S
Sa, 06.06. 4:55 11 2 - 180° S
Sa, 06.06. 4:00 11 2 - 170° S
Sa, 06.06. 3:55 11 2 - 170° S
Sa, 06.06. 3:00 7 2 - 220° SW
Sa, 06.06. 2:55 7 2 - 220° SW
Sa, 06.06. 2:00 7 2 - 190° S
Ortszeit Untergrenze Bedeckung Gattung
total tief tief mittel hoch
Sa, 06.06. 2:00 900 m 8/8 4/8 Sc Ac -
Fr, 05.06. 20:00 600 m 6/8 2/8 Cu Ac -
Fr, 05.06. 14:00 600 m 8/8 3/8 Cu Ac -
Fr, 05.06. 8:00 750 m 6/8 6/8 Sc - -
Fr, 05.06. 2:00 450 m 8/8 8/8 St - -
Do, 04.06. 20:00 300 m 8/8 8/8 St - -
Do, 04.06. 14:00 300 m 8/8 8/8 St - -
Do, 04.06. 8:00 240 m 8/8 8/8 Sc - -
Ortszeit Bedeckungsgrad in Achtel und Wolkenuntergrenze
Sa, 06.06. 6:00 4(300m) 4(600m)
Sa, 06.06. 5:55 3-4(300m) 3-4(600m)
Sa, 06.06. 5:00 4(750m) 5(1800m)
Sa, 06.06. 4:55 3-4(750m)
Sa, 06.06. 4:00 4(750m) 5(1800m)
Sa, 06.06. 3:55 3-4(750m)
Sa, 06.06. 3:00 3(900m) 6(1800m)
Sa, 06.06. 2:55 3-4(900m)
Sa, 06.06. 2:00 4(900m) 5(1800m)
Ortszeit Stationsdruck (hPa) Tendenz (hPa in 3 Std.)
Sa, 06.06. 2:00 845 + 1,3
Fr, 05.06. 20:00 841 + 1,2
Fr, 05.06. 14:00 840 + 0,9
Fr, 05.06. 8:00 838 + 0,3
Fr, 05.06. 2:00 838 + 0,4
Do, 04.06. 20:00 838 - 0,6
Do, 04.06. 14:00 840 - 0,8
Do, 04.06. 8:00 841 - 1,0
Ortszeit Stationsdruck (hPa) Tendenz (hPa in 3 Std.)
Sa, 06.06. 6:00 846 - 0,9
Sa, 06.06. 5:55 - keine Meldung
Sa, 06.06. 5:00 846 + 0,5
Sa, 06.06. 4:55 - keine Meldung
Sa, 06.06. 4:00 846 + 0,7
Sa, 06.06. 3:55 - keine Meldung
Sa, 06.06. 3:00 847 + 1,9
Sa, 06.06. 2:55 - keine Meldung
Sa, 06.06. 2:00 845 + 1,3
Ortszeit Schneehöhe (cm)
Sa, 06.06. 2:00 -
Fr, 05.06. 20:00 -
Fr, 05.06. 14:00 -
Fr, 05.06. 8:00 0
Fr, 05.06. 2:00 -
Do, 04.06. 20:00 -
Do, 04.06. 14:00 -
Do, 04.06. 8:00 0
Ortszeit Schneehöhe (cm)
Sa, 06.06. 6:00 -
Sa, 06.06. 5:55 -
Sa, 06.06. 5:00 -
Sa, 06.06. 4:55 -
Sa, 06.06. 4:00 -
Sa, 06.06. 3:55 -
Sa, 06.06. 3:00 -
Sa, 06.06. 2:55 -
Sa, 06.06. 2:00 -
Link zu dieser Seite / Seite empfehlen

Das Wetter in ...